Voltar ao catálogo

SL-8 DEB

AtivoLEO
NORAD 43117·DEBRIS·🇷🇺 Russia

Lançado Jun 21, 1988 de Plesetsk Cosmodrome

Loading…

Próximas Passagens (próximas 24 horas)

TLE

EnvelhecendoSource: Space-Track

Época: Sep 9, 2026, 10:40 UTC

1 43117U 88053E   26252.44463786  .00000089  00000-0  37986-4 0  9993
2 43117  74.0517 148.6134 0021299 279.6971  80.1778 14.38226928455452

Acompanhe SL-8 DEB em tempo real com AllMySat

Download on the App Store